Overview Statistics Trail Chart Weather Telemetry Raw packets
 

This is the latest recevied weather packets stored in our database for station/object KB4JAC-13. If no packets are shown the sender has not sent any weather packets the latest 10 day(s).

<< 27 28 29 30 31 32 33 >>
Time Temp. Humidity Pressure Rain* Wind** Luminosity Snow
1788148521 22.78° C 97% 994.3 hPa 0 mm - - -
1788147920 23.33° C 97% 994.5 hPa 0 mm - - -
1788147319 23.33° C 97% 994.4 hPa 0 mm - - -
1788146719 23.33° C 96% 994.4 hPa 0 mm - - -
1788146118 23.33° C 96% 994.2 hPa 0 mm - - -
1788145517 23.33° C 95% 994.4 hPa 0 mm - - -
1788144916 23.89° C 95% 994.4 hPa 0 mm - - -
1788144315 23.89° C 94% 994.3 hPa 0 mm - - -
1788143716 24.44° C 93% 994.4 hPa 0 mm - - -
1788143115 23.89° C 92% 994.4 hPa 0 mm - - -
1788142515 24.44° C 91% 994.2 hPa 0 mm - - -
1788141913 24.44° C 90% 994 hPa 0 mm - - -
1788141312 25° C 89% 993.9 hPa 0 mm - - -
1788140711 25° C 88% 993.9 hPa 0 mm - - -
1788140111 25° C 87% 993.8 hPa 0 mm - - -
1788139510 25.56° C 86% 993.6 hPa 0 mm - - -
1788138909 25.56° C 85% 993.6 hPa 0 mm - - -
1788138308 25.56° C 83% 993.5 hPa 0 mm - - -
1788137708 25.56° C 83% 993.3 hPa 0 mm - - -
1788137107 26.11° C 81% 993.2 hPa 0 mm - - -
1788136506 26.67° C 79% 993.3 hPa 0 mm - - -
1788135906 26.67° C 79% 993.2 hPa 0 mm - - -
1788135321 27.22° C 78% 993 hPa 0 mm - - -
1788134704 27.78° C 77% 993 hPa 0 mm - - -
1788134104 28.33° C 75% 993 hPa 0 mm - - -

* Rain since midnight (hover to see other rain measurements)
** Current wind speed in m/s (hover to see current wind gust speed)